Location: Drouwen
(52.9559°N, 6.7974°E)
Time: 21:29:51
(UTC+00:00)

EP 1 - Pass Details

Date: 15 May 2026
Orbit: 314 x 1668 km, 63.3° (Epoch: 25 August)

Event Time Altitude Azimuth Distance (km) Brightness Sun altitude
Rises 20:08:22 0° 313° (NW) 2,113 11.3 -6.0°
Reaches altitude 10° 20:10:20 10° 315° (NW) 1,236 9.0 -6.2°
Maximum altitude 20:12:57 77° 41° (NE) 332 4.2 -6.5°
Drops below altitude 10° 20:15:38 10° 129° (SE) 1,270 6.5 -6.8°
Enters shadow 20:15:44 - 129° (SE) 1,316 6.6 -6.8°
